Time,TemperatureF,DewpointF,PressureIn,WindDirection,WindDirectionDegrees,WindSpeedMPH,WindSpeedGustMPH,Humidity,HourlyPrecipIn,Conditions,Clouds,dailyrainin,SolarRadiationWatts/m^2,SoftwareType,DateUTC
2013-06-27 00:06:00,61.5,56.9,30.03,North,360,0.0,1.0,85,0.00,,,0.00,0,Wunderground v.1.15,2013-06-27 07:06:00,
2013-06-27 00:12:00,61.3,57.1,30.03,WNW,294,0.0,1.0,86,0.00,,,0.00,0,Wunderground v.1.15,2013-06-27 07:12:00,
2013-06-27 00:18:00,61.3,57.1,30.03,WNW,294,1.0,2.0,86,0.00,,,0.00,0,Wunderground v.1.15,2013-06-27 07:18:00,
2013-06-27 00:24:00,61.3,57.1,30.04,WNW,294,0.0,1.0,86,0.00,,,0.00,0,Wunderground v.1.15,2013-06-27 07:24:00,
2013-06-27 00:29:00,61.3,57.1,30.04,WNW,294,0.0,1.0,86,0.00,,,0.00,0,Wunderground v.1.15,2013-06-27 07:29:00,
2013-06-27 00:35:00,61.2,57.0,30.04,WNW,294,0.0,0.0,86,0.00,,,0.00,0,Wunderground v.1.15,2013-06-27 07:35:00,
2013-06-27 00:41:00,60.9,56.7,30.04,WNW,294,0.0,0.0,86,0.00,,,0.00,0,Wunderground v.1.15,2013-06-27 07:41:00,
2013-06-27 00:47:00,60.7,56.5,30.04,WNW,294,0.0,0.0,86,0.00,,,0.00,0,Wunderground v.1.15,2013-06-27 07:47:00,
2013-06-27 00:53:00,60.6,56.4,30.04,WNW,294,0.0,0.0,86,0.00,,,0.01,0,Wunderground v.1.15,2013-06-27 07:53:00,
2013-06-27 00:59:00,60.5,56.3,30.04,WNW,294,0.0,0.0,86,0.00,,,0.01,0,Wunderground v.1.15,2013-06-27 07:59:00,
2013-06-27 01:04:00,60.4,55.9,30.04,WNW,294,0.0,0.0,85,0.00,,,0.01,0,Wunderground v.1.15,2013-06-27 08:04:00,
2013-06-27 01:10:00,60.5,56.0,30.04,WNW,294,0.0,0.0,85,0.04,,,0.02,0,Wunderground v.1.15,2013-06-27 08:10:00,
2013-06-27 01:15:00,60.5,56.0,30.04,WNW,294,0.0,0.0,85,0.04,,,0.02,0,Wunderground v.1.15,2013-06-27 08:15:00,
2013-06-27 01:21:00,60.3,55.8,30.03,WNW,294,1.0,1.0,85,0.04,,,0.02,0,Wunderground v.1.15,2013-06-27 08:21:00,
2013-06-27 01:27:00,60.1,55.6,30.03,WNW,294,0.0,1.0,85,0.00,,,0.02,0,Wunderground v.1.15,2013-06-27 08:27:00,
2013-06-27 01:33:00,60.0,55.5,30.03,WNW,294,0.0,1.0,85,0.00,,,0.02,0,Wunderground v.1.15,2013-06-27 08:33:00,
2013-06-27 01:38:00,59.9,55.1,30.03,WNW,294,1.0,1.0,84,0.00,,,0.02,0,Wunderground v.1.15,2013-06-27 08:38:00,
2013-06-27 01:44:00,59.9,55.1,30.02,WNW,294,0.0,0.0,84,0.00,,,0.02,0,Wunderground v.1.15,2013-06-27 08:44:00,
2013-06-27 01:50:00,59.8,55.0,30.02,WNW,294,0.0,0.0,84,0.00,,,0.03,0,Wunderground v.1.15,2013-06-27 08:50:00,
2013-06-27 01:55:00,59.8,55.0,30.02,WNW,294,0.0,0.0,84,0.00,,,0.03,0,Wunderground v.1.15,2013-06-27 08:55:00,
2013-06-27 02:00:00,59.9,54.7,30.02,WNW,294,0.0,0.0,83,0.00,,,0.03,0,Wunderground v.1.15,2013-06-27 09:00:00,
2013-06-27 02:05:00,60.0,54.8,30.02,WNW,294,0.0,1.0,83,0.00,,,0.03,0,Wunderground v.1.15,2013-06-27 09:05:00,
2013-06-27 02:10:00,60.0,54.8,30.02,WNW,294,1.0,1.0,83,0.00,,,0.03,0,Wunderground v.1.15,2013-06-27 09:10:00,
2013-06-27 02:16:00,60.0,54.8,30.01,WNW,294,0.0,2.0,83,0.00,,,0.03,0,Wunderground v.1.15,2013-06-27 09:16:00,
2013-06-27 02:21:00,60.0,54.8,30.01,WNW,294,2.0,4.0,83,0.00,,,0.03,0,Wunderground v.1.15,2013-06-27 09:21:00,
2013-06-27 02:26:00,60.1,54.9,30.01,WNW,294,0.0,4.0,83,0.00,,,0.03,0,Wunderground v.1.15,2013-06-27 09:26:00,
2013-06-27 02:31:00,60.2,54.7,30.01,WNW,294,0.0,1.0,82,0.00,,,0.03,0,Wunderground v.1.15,2013-06-27 09:31:00,
2013-06-27 02:36:00,60.0,54.8,30.02,WNW,294,2.0,4.0,83,0.00,,,0.03,0,Wunderground v.1.15,2013-06-27 09:36:00,
2013-06-27 02:41:00,59.9,54.7,30.02,WNW,294,1.0,1.0,83,0.00,,,0.03,0,Wunderground v.1.15,2013-06-27 09:41:00,
2013-06-27 02:46:00,60.0,54.5,30.02,WNW,294,2.0,2.0,82,0.00,,,0.03,0,Wunderground v.1.15,2013-06-27 09:46:00,
2013-06-27 02:51:00,59.9,54.7,30.02,WNW,294,2.0,2.0,83,0.00,,,0.04,0,Wunderground v.1.15,2013-06-27 09:51:00,
2013-06-27 02:56:00,59.8,54.6,30.02,WNW,294,1.0,2.0,83,0.00,,,0.04,0,Wunderground v.1.15,2013-06-27 09:56:00,
2013-06-27 03:01:00,59.8,54.6,30.02,WNW,294,0.0,1.0,83,0.00,,,0.04,0,Wunderground v.1.15,2013-06-27 10:01:00,
2013-06-27 03:06:00,59.8,54.6,30.02,WNW,294,0.0,1.0,83,0.00,,,0.04,0,Wunderground v.1.15,2013-06-27 10:06:00,
2013-06-27 03:11:00,59.8,54.3,30.01,WNW,294,2.0,5.0,82,0.00,,,0.04,0,Wunderground v.1.15,2013-06-27 10:11:00,
2013-06-27 03:16:00,59.7,54.2,30.01,WNW,294,2.0,5.0,82,0.00,,,0.05,0,Wunderground v.1.15,2013-06-27 10:16:00,
2013-06-27 03:21:00,59.8,54.3,30.01,WNW,294,2.0,4.0,82,0.00,,,0.05,0,Wunderground v.1.15,2013-06-27 10:21:00,
2013-06-27 03:26:00,59.8,54.3,30.01,WNW,294,1.0,4.0,82,0.00,,,0.05,0,Wunderground v.1.15,2013-06-27 10:26:00,
2013-06-27 03:31:00,59.6,54.4,30.01,WNW,294,0.0,1.0,83,0.00,,,0.05,0,Wunderground v.1.15,2013-06-27 10:31:00,
2013-06-27 03:36:00,59.5,54.3,30.01,WNW,294,0.0,1.0,83,0.00,,,0.05,0,Wunderground v.1.15,2013-06-27 10:36:00,
2013-06-27 03:41:00,59.4,53.9,30.01,WNW,294,0.0,0.0,82,0.00,,,0.06,0,Wunderground v.1.15,2013-06-27 10:41:00,
2013-06-27 03:46:00,59.4,54.2,30.01,WNW,294,0.0,0.0,83,0.00,,,0.06,0,Wunderground v.1.15,2013-06-27 10:46:00,
2013-06-27 03:51:00,59.3,53.8,30.01,WNW,294,1.0,1.0,82,0.00,,,0.06,0,Wunderground v.1.15,2013-06-27 10:51:00,
2013-06-27 03:56:00,59.3,53.8,30.00,WNW,294,1.0,2.0,82,0.00,,,0.06,0,Wunderground v.1.15,2013-06-27 10:56:00,
2013-06-27 04:02:00,59.6,54.1,30.00,WNW,294,0.0,1.0,82,0.00,,,0.06,0,Wunderground v.1.15,2013-06-27 11:02:00,
2013-06-27 04:07:00,59.6,54.4,30.00,WNW,294,0.0,1.0,83,0.00,,,0.06,0,Wunderground v.1.15,2013-06-27 11:07:00,
2013-06-27 04:12:00,59.6,54.4,30.00,WNW,294,1.0,1.0,83,0.00,,,0.06,0,Wunderground v.1.15,2013-06-27 11:12:00,
2013-06-27 04:17:00,59.5,54.3,30.00,WNW,294,2.0,2.0,83,0.00,,,0.06,0,Wunderground v.1.15,2013-06-27 11:17:00,
2013-06-27 04:22:00,59.5,54.3,30.00,WNW,294,0.0,2.0,83,0.00,,,0.07,0,Wunderground v.1.15,2013-06-27 11:22:00,
2013-06-27 04:27:00,59.5,54.3,30.00,WNW,294,0.0,2.0,83,0.00,,,0.07,0,Wunderground v.1.15,2013-06-27 11:27:00,
2013-06-27 04:32:00,59.3,54.1,30.00,WNW,294,0.0,0.0,83,0.00,,,0.07,0,Wunderground v.1.15,2013-06-27 11:32:00,
2013-06-27 04:37:00,59.3,53.8,30.01,WNW,294,0.0,0.0,82,0.04,,,0.08,0,Wunderground v.1.15,2013-06-27 11:37:00,
2013-06-27 04:42:00,59.5,54.3,30.00,WNW,294,1.0,2.0,83,0.04,,,0.08,0,Wunderground v.1.15,2013-06-27 11:42:00,
2013-06-27 04:47:00,59.5,54.3,30.00,NW,311,0.0,2.0,83,0.05,,,0.08,0,Wunderground v.1.15,2013-06-27 11:47:00,
2013-06-27 04:52:00,59.5,54.3,30.00,NW,311,0.0,2.0,83,0.05,,,0.09,0,Wunderground v.1.15,2013-06-27 11:52:00,
2013-06-27 04:57:00,59.5,54.3,30.00,NW,311,0.0,2.0,83,0.05,,,0.09,0,Wunderground v.1.15,2013-06-27 11:57:00,
2013-06-27 05:02:00,59.5,54.3,30.00,NW,311,0.0,0.0,83,0.06,,,0.10,0,Wunderground v.1.15,2013-06-27 12:02:00,
2013-06-27 05:07:00,59.5,54.3,30.00,NW,311,1.0,4.0,83,0.06,,,0.10,0,Wunderground v.1.15,2013-06-27 12:07:00,
2013-06-27 05:12:00,59.4,54.2,30.00,NW,311,2.0,2.0,83,0.04,,,0.10,0,Wunderground v.1.15,2013-06-27 12:12:00,
2013-06-27 05:17:00,59.4,53.9,30.00,NNW,339,4.0,6.0,82,0.00,,,0.10,0,Wunderground v.1.15,2013-06-27 12:17:00,
2013-06-27 05:22:00,59.4,53.9,30.00,North,355,5.0,5.0,82,0.00,,,0.10,0,Wunderground v.1.15,2013-06-27 12:22:00,
2013-06-27 05:27:00,59.4,53.9,30.00,NW,321,4.0,5.0,82,0.00,,,0.10,0,Wunderground v.1.15,2013-06-27 12:27:00,
2013-06-27 05:32:00,59.5,54.3,30.00,NNW,327,2.0,4.0,83,0.00,,,0.11,0,Wunderground v.1.15,2013-06-27 12:32:00,
2013-06-27 05:37:00,59.4,54.2,30.00,NNW,327,2.0,5.0,83,0.00,,,0.11,0,Wunderground v.1.15,2013-06-27 12:37:00,
2013-06-27 05:42:00,59.4,54.2,30.00,NNW,327,2.0,5.0,83,0.00,,,0.11,0,Wunderground v.1.15,2013-06-27 12:42:00,
2013-06-27 05:47:00,59.4,54.2,30.01,NNW,327,0.0,5.0,83,0.00,,,0.11,9,Wunderground v.1.15,2013-06-27 12:47:00,
2013-06-27 05:54:00,59.5,54.3,30.01,NNW,327,0.0,1.0,83,0.00,,,0.11,11,Wunderground v.1.15,2013-06-27 12:54:00,
2013-06-27 05:59:00,59.5,54.3,30.01,NNW,327,0.0,1.0,83,0.00,,,0.12,7,Wunderground v.1.15,2013-06-27 12:59:00,
2013-06-27 06:04:00,59.5,54.3,30.01,NNW,327,0.0,0.0,83,0.00,,,0.12,9,Wunderground v.1.15,2013-06-27 13:04:00,
2013-06-27 06:09:00,59.5,54.3,30.01,NNW,327,2.0,4.0,83,0.00,,,0.12,11,Wunderground v.1.15,2013-06-27 13:09:00,
2013-06-27 06:14:00,59.5,54.3,30.01,WNW,299,5.0,5.0,83,0.04,,,0.13,16,Wunderground v.1.15,2013-06-27 13:14:00,
2013-06-27 06:19:00,59.5,54.3,30.02,WNW,299,4.0,5.0,83,0.04,,,0.13,21,Wunderground v.1.15,2013-06-27 13:19:00,
2013-06-27 06:24:00,59.5,54.3,30.02,WNW,299,4.0,5.0,83,0.06,,,0.14,19,Wunderground v.1.15,2013-06-27 13:24:00,
2013-06-27 06:29:00,59.5,54.3,30.02,WNW,299,1.0,5.0,83,0.06,,,0.14,18,Wunderground v.1.15,2013-06-27 13:29:00,
2013-06-27 06:34:00,59.6,54.4,30.02,WNW,299,2.0,4.0,83,0.06,,,0.15,25,Wunderground v.1.15,2013-06-27 13:34:00,
2013-06-27 06:39:00,59.6,54.4,30.02,WNW,302,2.0,5.0,83,0.06,,,0.15,28,Wunderground v.1.15,2013-06-27 13:39:00,
2013-06-27 06:44:00,59.6,54.4,30.02,WNW,302,2.0,4.0,83,0.05,,,0.15,32,Wunderground v.1.15,2013-06-27 13:44:00,
2013-06-27 06:49:00,59.6,54.4,30.02,WNW,302,4.0,5.0,83,0.04,,,0.16,32,Wunderground v.1.15,2013-06-27 13:49:00,
2013-06-27 06:54:00,59.6,54.4,30.03,WNW,302,0.0,5.0,83,0.04,,,0.16,28,Wunderground v.1.15,2013-06-27 13:54:00,
2013-06-27 06:59:00,59.7,54.5,30.03,WNW,302,0.0,5.0,83,0.04,,,0.16,44,Wunderground v.1.15,2013-06-27 13:59:00,
2013-06-27 07:04:00,59.8,54.6,30.03,WNW,302,2.0,4.0,83,0.04,,,0.16,26,Wunderground v.1.15,2013-06-27 14:04:00,
2013-06-27 07:09:00,59.8,54.6,30.03,WNW,302,0.0,5.0,83,0.00,,,0.17,44,Wunderground v.1.15,2013-06-27 14:09:00,
2013-06-27 07:14:00,59.9,54.7,30.03,NW,314,1.0,2.0,83,0.00,,,0.17,42,Wunderground v.1.15,2013-06-27 14:14:00,
2013-06-27 07:19:00,60.0,54.8,30.03,NW,314,0.0,2.0,83,0.00,,,0.17,58,Wunderground v.1.15,2013-06-27 14:19:00,
2013-06-27 07:25:00,60.0,54.8,30.03,NW,314,2.0,2.0,83,0.00,,,0.17,76,Wunderground v.1.15,2013-06-27 14:25:00,
2013-06-27 07:30:00,60.1,54.9,30.03,NW,314,1.0,2.0,83,0.00,,,0.17,95,Wunderground v.1.15,2013-06-27 14:30:00,
2013-06-27 07:35:00,60.2,55.0,30.04,NNW,330,2.0,2.0,83,0.00,,,0.17,74,Wunderground v.1.15,2013-06-27 14:35:00,
2013-06-27 07:40:00,60.2,55.0,30.04,NW,325,0.0,1.0,83,0.00,,,0.18,69,Wunderground v.1.15,2013-06-27 14:40:00,
2013-06-27 07:45:00,60.3,55.1,30.04,NW,317,0.0,2.0,83,0.00,,,0.18,62,Wunderground v.1.15,2013-06-27 14:45:00,
2013-06-27 07:50:00,60.4,55.2,30.04,NNW,327,1.0,1.0,83,0.00,,,0.18,60,Wunderground v.1.15,2013-06-27 14:50:00,
2013-06-27 07:55:00,60.4,55.2,30.04,North,355,0.0,2.0,83,0.00,,,0.18,56,Wunderground v.1.15,2013-06-27 14:55:00,
2013-06-27 08:00:00,60.5,55.3,30.04,NNW,339,0.0,0.0,83,0.00,,,0.19,63,Wunderground v.1.15,2013-06-27 15:00:00,
2013-06-27 08:05:00,60.5,55.6,30.04,North,355,0.0,1.0,84,0.00,,,0.19,77,Wunderground v.1.15,2013-06-27 15:05:00,
2013-06-27 08:10:00,60.6,55.7,30.04,North,11,1.0,1.0,84,0.00,,,0.19,93,Wunderground v.1.15,2013-06-27 15:10:00,
2013-06-27 08:15:00,60.8,55.6,30.04,North,11,0.0,1.0,83,0.00,,,0.19,86,Wunderground v.1.15,2013-06-27 15:15:00,
2013-06-27 08:20:00,60.9,55.7,30.04,North,11,1.0,1.0,83,0.00,,,0.19,105,Wunderground v.1.15,2013-06-27 15:20:00,
2013-06-27 08:25:00,60.8,55.9,30.05,NNE,28,0.0,2.0,84,0.00,,,0.19,102,Wunderground v.1.15,2013-06-27 15:25:00,
2013-06-27 08:30:00,61.0,55.8,30.05,NNE,28,0.0,0.0,83,0.00,,,0.19,100,Wunderground v.1.15,2013-06-27 15:30:00,
2013-06-27 08:35:00,61.0,56.1,30.05,NNE,28,0.0,0.0,84,0.00,,,0.19,128,Wunderground v.1.15,2013-06-27 15:35:00,
2013-06-27 08:40:00,61.0,56.1,30.05,NNE,26,1.0,1.0,84,0.00,,,0.19,121,Wunderground v.1.15,2013-06-27 15:40:00,
2013-06-27 08:45:00,61.2,56.3,30.06,NW,310,0.0,1.0,84,0.00,,,0.19,135,Wunderground v.1.15,2013-06-27 15:45:00,
2013-06-27 08:50:00,61.3,56.8,30.06,West,277,1.0,1.0,85,0.00,,,0.19,121,Wunderground v.1.15,2013-06-27 15:50:00,
2013-06-27 08:55:00,61.4,56.5,30.06,SW,217,1.0,4.0,84,0.00,,,0.19,105,Wunderground v.1.15,2013-06-27 15:55:00,
2013-06-27 09:00:00,61.4,56.5,30.06,SW,217,0.0,2.0,84,0.00,,,0.19,127,Wunderground v.1.15,2013-06-27 16:00:00,
2013-06-27 09:05:00,61.5,56.6,30.06,SW,217,1.0,2.0,84,0.00,,,0.19,144,Wunderground v.1.15,2013-06-27 16:05:00,
2013-06-27 09:10:00,61.6,56.7,30.06,SW,217,2.0,3.0,84,0.00,,,0.19,141,Wunderground v.1.15,2013-06-27 16:10:00,
2013-06-27 09:15:00,61.6,57.0,30.06,SW,217,4.0,4.0,85,0.00,,,0.19,155,Wunderground v.1.15,2013-06-27 16:15:00,
2013-06-27 09:20:00,61.6,57.0,30.07,SSW,213,4.0,4.0,85,0.00,,,0.19,153,Wunderground v.1.15,2013-06-27 16:20:00,
2013-06-27 09:25:00,61.5,56.9,30.07,SW,214,4.0,5.0,85,0.00,,,0.19,109,Wunderground v.1.15,2013-06-27 16:25:00,
2013-06-27 09:30:00,61.5,56.9,30.07,SSW,213,1.0,3.0,85,0.00,,,0.19,137,Wunderground v.1.15,2013-06-27 16:30:00,
2013-06-27 09:35:00,61.7,56.8,30.07,SSW,213,0.0,3.0,84,0.00,,,0.19,134,Wunderground v.1.15,2013-06-27 16:35:00,
2013-06-27 09:40:00,61.7,57.1,30.07,SSW,213,0.0,1.0,85,0.00,,,0.19,156,Wunderground v.1.15,2013-06-27 16:40:00,
2013-06-27 09:45:00,61.8,57.2,30.07,SSW,213,0.0,1.0,85,0.00,,,0.19,165,Wunderground v.1.15,2013-06-27 16:45:00,
2013-06-27 09:50:00,61.9,57.3,30.07,SSW,213,0.0,0.0,85,0.00,,,0.19,172,Wunderground v.1.15,2013-06-27 16:50:00,
2013-06-27 09:55:00,62.2,57.6,30.07,SSW,213,0.0,1.0,85,0.00,,,0.19,199,Wunderground v.1.15,2013-06-27 16:55:00,
2013-06-27 10:00:00,62.3,57.7,30.07,SSW,213,0.0,0.0,85,0.00,,,0.19,244,Wunderground v.1.15,2013-06-27 17:00:00,
2013-06-27 10:06:00,62.6,58.0,30.08,SSW,213,2.0,2.0,85,0.00,,,0.19,292,Wunderground v.1.15,2013-06-27 17:06:00,
2013-06-27 10:11:00,62.6,58.4,30.08,SSW,213,1.0,1.0,86,0.00,,,0.19,311,Wunderground v.1.15,2013-06-27 17:11:00,
2013-06-27 10:16:00,63.0,58.7,30.08,SSW,213,1.0,2.0,86,0.00,,,0.19,290,Wunderground v.1.15,2013-06-27 17:16:00,
2013-06-27 10:21:00,63.1,59.2,30.08,SSW,213,0.0,1.0,87,0.00,,,0.19,278,Wunderground v.1.15,2013-06-27 17:21:00,
2013-06-27 10:26:00,63.4,59.5,30.08,SSW,213,1.0,2.0,87,0.00,,,0.19,304,Wunderground v.1.15,2013-06-27 17:26:00,
2013-06-27 10:31:00,63.4,59.5,30.08,SSW,213,0.0,2.0,87,0.00,,,0.19,318,Wunderground v.1.15,2013-06-27 17:31:00,
2013-06-27 10:36:00,63.6,60.0,30.08,SSW,213,0.0,2.0,88,0.00,,,0.19,336,Wunderground v.1.15,2013-06-27 17:36:00,
2013-06-27 10:41:00,64.0,60.4,30.08,SSW,213,0.0,0.0,88,0.00,,,0.19,330,Wunderground v.1.15,2013-06-27 17:41:00,
2013-06-27 10:46:00,64.3,60.7,30.08,SSW,213,0.0,3.0,88,0.00,,,0.19,309,Wunderground v.1.15,2013-06-27 17:46:00,
2013-06-27 10:51:00,64.4,60.8,30.08,SSW,213,0.0,1.0,88,0.00,,,0.19,334,Wunderground v.1.15,2013-06-27 17:51:00,
2013-06-27 10:56:00,64.7,60.7,30.09,SSW,213,3.0,3.0,87,0.00,,,0.19,489,Wunderground v.1.15,2013-06-27 17:56:00,
2013-06-27 11:01:00,65.0,61.0,30.08,SSW,213,0.0,1.0,87,0.00,,,0.19,566,Wunderground v.1.15,2013-06-27 18:01:00,
2013-06-27 11:06:00,65.6,61.6,30.08,SSW,213,1.0,2.0,87,0.00,,,0.19,643,Wunderground v.1.15,2013-06-27 18:06:00,
2013-06-27 11:11:00,65.8,61.8,30.08,SSW,194,3.0,3.0,87,0.00,,,0.19,619,Wunderground v.1.15,2013-06-27 18:11:00,
2013-06-27 11:16:00,66.0,62.0,30.09,South,183,2.0,4.0,87,0.00,,,0.19,548,Wunderground v.1.15,2013-06-27 18:16:00,
2013-06-27 11:21:00,66.1,62.1,30.09,SE,136,1.0,6.0,87,0.00,,,0.19,548,Wunderground v.1.15,2013-06-27 18:21:00,
2013-06-27 11:26:00,66.3,62.3,30.09,SSE,159,2.0,6.0,87,0.00,,,0.19,559,Wunderground v.1.15,2013-06-27 18:26:00,
2013-06-27 11:31:00,66.7,62.7,30.09,South,174,0.0,4.0,87,0.00,,,0.19,550,Wunderground v.1.15,2013-06-27 18:31:00,
2013-06-27 11:36:00,67.0,63.0,30.09,South,171,0.0,4.0,87,0.00,,,0.19,501,Wunderground v.1.15,2013-06-27 18:36:00,
2013-06-27 11:41:00,67.5,63.5,30.09,South,171,4.0,5.0,87,0.00,,,0.19,608,Wunderground v.1.15,2013-06-27 18:41:00,
2013-06-27 11:46:00,67.7,63.7,30.09,SSE,154,0.0,6.0,87,0.00,,,0.19,413,Wunderground v.1.15,2013-06-27 18:46:00,
2013-06-27 11:54:00,67.8,63.5,30.09,SSE,154,2.0,2.0,86,0.00,,,0.19,387,Wunderground v.1.15,2013-06-27 18:54:00,
2013-06-27 11:59:00,68.3,64.3,30.09,SSE,154,4.0,5.0,87,0.00,,,0.19,494,Wunderground v.1.15,2013-06-27 18:59:00,
2013-06-27 12:04:00,68.3,63.9,30.10,SSW,197,6.0,8.0,86,0.00,,,0.19,320,Wunderground v.1.15,2013-06-27 19:04:00,
2013-06-27 12:09:00,68.0,63.7,30.10,South,175,8.0,9.0,86,0.00,,,0.19,301,Wunderground v.1.15,2013-06-27 19:09:00,
2013-06-27 12:14:00,67.7,63.7,30.10,SSE,168,9.0,10.0,87,0.00,,,0.19,339,Wunderground v.1.15,2013-06-27 19:14:00,
2013-06-27 12:19:00,67.7,63.4,30.10,SSE,163,4.0,10.0,86,0.00,,,0.19,267,Wunderground v.1.15,2013-06-27 19:19:00,
2013-06-27 12:24:00,67.8,62.8,30.10,SSE,153,4.0,10.0,84,0.00,,,0.19,260,Wunderground v.1.15,2013-06-27 19:24:00,
2013-06-27 12:29:00,68.1,63.4,30.10,SE,143,4.0,11.0,85,0.00,,,0.19,292,Wunderground v.1.15,2013-06-27 19:29:00,
2013-06-27 12:34:00,68.4,63.4,30.10,SSE,153,8.0,8.0,84,0.00,,,0.19,325,Wunderground v.1.15,2013-06-27 19:34:00,
2013-06-27 12:39:00,68.6,62.9,30.09,SE,141,5.0,9.0,82,0.00,,,0.19,383,Wunderground v.1.15,2013-06-27 19:39:00,
2013-06-27 12:44:00,68.8,63.1,30.09,SSE,157,5.0,9.0,82,0.00,,,0.19,352,Wunderground v.1.15,2013-06-27 19:44:00,
2013-06-27 12:49:00,69.0,63.3,30.09,SSE,147,9.0,11.0,82,0.00,,,0.19,376,Wunderground v.1.15,2013-06-27 19:49:00,
2013-06-27 12:54:00,69.1,63.0,30.10,SSE,153,5.0,11.0,81,0.00,,,0.19,279,Wunderground v.1.15,2013-06-27 19:54:00,
2013-06-27 13:00:00,69.3,63.6,30.10,South,178,6.0,11.0,82,0.00,,,0.19,364,Wunderground v.1.15,2013-06-27 20:00:00,
2013-06-27 13:05:00,69.5,63.4,30.10,SE,140,8.0,8.0,81,0.00,,,0.19,468,Wunderground v.1.15,2013-06-27 20:05:00,
2013-06-27 13:10:00,69.9,63.4,30.10,South,189,6.0,8.0,80,0.00,,,0.19,399,Wunderground v.1.15,2013-06-27 20:10:00,
2013-06-27 13:15:00,70.3,63.5,30.10,SSE,167,9.0,10.0,79,0.00,,,0.19,404,Wunderground v.1.15,2013-06-27 20:15:00,
2013-06-27 13:20:00,70.4,62.8,30.10,SSE,162,5.0,6.0,77,0.00,,,0.19,279,Wunderground v.1.15,2013-06-27 20:20:00,
2013-06-27 13:25:00,70.2,63.4,30.11,SSW,197,6.0,10.0,79,0.00,,,0.19,236,Wunderground v.1.15,2013-06-27 20:25:00,
2013-06-27 13:30:00,70.0,63.5,30.10,South,178,8.0,8.0,80,0.00,,,0.19,207,Wunderground v.1.15,2013-06-27 20:30:00,
2013-06-27 13:36:00,69.8,63.0,30.11,SSE,168,5.0,8.0,79,0.00,,,0.19,158,Wunderground v.1.15,2013-06-27 20:36:00,
2013-06-27 13:42:00,69.7,63.3,30.11,SSW,195,4.0,5.0,80,0.00,,,0.19,142,Wunderground v.1.15,2013-06-27 20:42:00,
2013-06-27 13:47:00,69.6,63.5,30.11,South,189,4.0,5.0,81,0.00,,,0.19,160,Wunderground v.1.15,2013-06-27 20:47:00,
2013-06-27 13:52:00,69.7,62.9,30.11,South,172,4.0,6.0,79,0.00,,,0.19,207,Wunderground v.1.15,2013-06-27 20:52:00,
2013-06-27 13:57:00,69.9,63.4,30.12,South,174,4.0,6.0,80,0.00,,,0.19,209,Wunderground v.1.15,2013-06-27 20:57:00,
2013-06-27 14:02:00,70.1,62.6,30.11,South,180,4.0,8.0,77,0.00,,,0.19,246,Wunderground v.1.15,2013-06-27 21:02:00,
2013-06-27 14:07:00,70.4,63.6,30.11,SSE,153,0.0,8.0,79,0.00,,,0.19,336,Wunderground v.1.15,2013-06-27 21:07:00,
2013-06-27 14:12:00,70.9,63.7,30.11,South,169,2.0,6.0,78,0.00,,,0.19,448,Wunderground v.1.15,2013-06-27 21:12:00,
2013-06-27 14:17:00,71.5,63.5,30.11,SE,130,5.0,8.0,76,0.00,,,0.19,503,Wunderground v.1.15,2013-06-27 21:17:00,
2013-06-27 14:22:00,71.9,62.8,30.12,SSE,167,5.0,9.0,73,0.00,,,0.19,410,Wunderground v.1.15,2013-06-27 21:22:00,
2013-06-27 14:28:00,71.9,63.2,30.11,SSE,151,4.0,10.0,74,0.00,,,0.19,425,Wunderground v.1.15,2013-06-27 21:28:00,
2013-06-27 14:33:00,72.1,63.4,30.11,SSE,161,4.0,7.0,74,0.00,,,0.19,278,Wunderground v.1.15,2013-06-27 21:33:00,
2013-06-27 14:38:00,72.0,63.3,30.12,SSW,198,8.0,12.0,74,0.00,,,0.19,281,Wunderground v.1.15,2013-06-27 21:38:00,
2013-06-27 14:43:00,71.9,63.2,30.12,South,187,6.0,11.0,74,0.00,,,0.19,251,Wunderground v.1.15,2013-06-27 21:43:00,
2013-06-27 14:48:00,71.7,62.6,30.12,SSW,198,5.0,11.0,73,0.00,,,0.19,183,Wunderground v.1.15,2013-06-27 21:48:00,
2013-06-27 14:53:00,71.6,63.3,30.12,WSW,239,4.0,7.0,75,0.00,,,0.19,160,Wunderground v.1.15,2013-06-27 21:53:00,
2013-06-27 14:59:00,71.6,62.5,30.13,SSW,198,7.0,11.0,73,0.00,,,0.19,183,Wunderground v.1.15,2013-06-27 21:59:00,
2013-06-27 15:04:00,71.6,62.9,30.12,South,189,6.0,8.0,74,0.00,,,0.19,269,Wunderground v.1.15,2013-06-27 22:04:00,
2013-06-27 15:09:00,71.9,62.8,30.12,South,187,8.0,10.0,73,0.00,,,0.19,262,Wunderground v.1.15,2013-06-27 22:09:00,
2013-06-27 15:14:00,72.0,63.3,30.12,SSW,199,5.0,8.0,74,0.00,,,0.19,246,Wunderground v.1.15,2013-06-27 22:14:00,
2013-06-27 15:19:00,72.1,63.4,30.13,SW,223,6.0,8.0,74,0.00,,,0.19,309,Wunderground v.1.15,2013-06-27 22:19:00,
2013-06-27 15:25:00,72.4,63.3,30.12,SW,220,2.0,6.0,73,0.00,,,0.19,287,Wunderground v.1.15,2013-06-27 22:25:00,
2013-06-27 15:30:00,72.4,64.0,30.13,SSW,203,4.0,5.0,75,0.00,,,0.19,236,Wunderground v.1.15,2013-06-27 22:30:00,
2013-06-27 15:35:00,72.5,64.1,30.13,SW,221,4.0,5.0,75,0.00,,,0.19,188,Wunderground v.1.15,2013-06-27 22:35:00,
2013-06-27 15:40:00,72.4,63.6,30.13,SSW,211,5.0,7.0,74,0.00,,,0.19,128,Wunderground v.1.15,2013-06-27 22:40:00,
2013-06-27 15:46:00,72.2,63.8,30.13,SW,236,5.0,7.0,75,0.00,,,0.19,104,Wunderground v.1.15,2013-06-27 22:46:00,
2013-06-27 15:52:00,72.1,64.1,30.13,SW,236,6.0,7.0,76,0.00,,,0.19,227,Wunderground v.1.15,2013-06-27 22:52:00,
2013-06-27 15:57:00,72.0,64.0,30.13,West,264,3.0,7.0,76,0.00,,,0.19,334,Wunderground v.1.15,2013-06-27 22:57:00,
2013-06-27 16:02:00,71.7,64.8,30.14,West,273,4.0,7.0,79,0.00,,,0.19,376,Wunderground v.1.15,2013-06-27 23:02:00,
2013-06-27 16:08:00,71.5,64.6,30.14,West,275,7.0,11.0,79,0.00,,,0.19,332,Wunderground v.1.15,2013-06-27 23:08:00,
2013-06-27 16:13:00,71.1,64.6,30.13,West,281,7.0,8.0,80,0.00,,,0.19,250,Wunderground v.1.15,2013-06-27 23:13:00,
2013-06-27 16:18:00,71.0,64.9,30.14,West,263,3.0,8.0,81,0.00,,,0.19,181,Wunderground v.1.15,2013-06-27 23:18:00,
2013-06-27 16:24:00,71.0,64.2,30.14,West,275,4.0,6.0,79,0.00,,,0.19,148,Wunderground v.1.15,2013-06-27 23:24:00,
2013-06-27 16:29:00,71.0,64.9,30.14,West,272,5.0,6.0,81,0.00,,,0.19,165,Wunderground v.1.15,2013-06-27 23:29:00,
2013-06-27 16:34:00,71.0,64.9,30.15,West,275,5.0,7.0,81,0.00,,,0.19,139,Wunderground v.1.15,2013-06-27 23:34:00,
2013-06-27 16:39:00,70.8,64.3,30.14,West,279,6.0,7.0,80,0.00,,,0.19,144,Wunderground v.1.15,2013-06-27 23:39:00,
2013-06-27 16:44:00,70.8,64.3,30.14,WNW,291,4.0,7.0,80,0.00,,,0.19,155,Wunderground v.1.15,2013-06-27 23:44:00,
2013-06-27 16:50:00,70.6,64.5,30.14,WNW,290,6.0,6.0,81,0.00,,,0.19,158,Wunderground v.1.15,2013-06-27 23:50:00,
2013-06-27 16:55:00,70.6,64.8,30.15,WNW,286,6.0,7.0,82,0.00,,,0.19,151,Wunderground v.1.15,2013-06-27 23:55:00,
2013-06-27 17:00:00,70.5,64.4,30.14,WNW,283,2.0,5.0,81,0.00,,,0.19,174,Wunderground v.1.15,2013-06-28 00:00:00,
2013-06-27 17:05:00,70.5,64.7,30.15,WNW,284,5.0,7.0,82,0.00,,,0.19,156,Wunderground v.1.15,2013-06-28 00:05:00,
2013-06-27 17:10:00,70.4,64.6,30.15,WNW,283,5.0,6.0,82,0.00,,,0.19,121,Wunderground v.1.15,2013-06-28 00:10:00,
2013-06-27 17:15:00,70.3,64.5,30.14,WNW,295,6.0,7.0,82,0.00,,,0.19,127,Wunderground v.1.15,2013-06-28 00:15:00,
2013-06-27 17:20:00,70.4,64.6,30.15,West,281,2.0,5.0,82,0.00,,,0.19,128,Wunderground v.1.15,2013-06-28 00:20:00,
2013-06-27 17:25:00,70.4,64.6,30.15,WNW,298,6.0,7.0,82,0.00,,,0.19,125,Wunderground v.1.15,2013-06-28 00:25:00,
2013-06-27 17:31:00,70.4,65.0,30.14,NW,325,5.0,5.0,83,0.00,,,0.19,144,Wunderground v.1.15,2013-06-28 00:31:00,
2013-06-27 17:36:00,70.4,64.6,30.15,NW,322,2.0,6.0,82,0.00,,,0.19,144,Wunderground v.1.15,2013-06-28 00:36:00,
2013-06-27 17:41:00,70.4,64.6,30.15,NW,306,4.0,7.0,82,0.00,,,0.19,130,Wunderground v.1.15,2013-06-28 00:41:00,
2013-06-27 17:46:00,70.4,64.6,30.15,West,281,5.0,7.0,82,0.00,,,0.19,102,Wunderground v.1.15,2013-06-28 00:46:00,
2013-06-27 17:54:00,70.3,64.5,30.14,West,273,5.0,5.0,82,0.00,,,0.19,153,Wunderground v.1.15,2013-06-28 00:54:00,
2013-06-27 17:59:00,70.3,64.2,30.14,NW,316,4.0,6.0,81,0.00,,,0.19,141,Wunderground v.1.15,2013-06-28 00:59:00,
2013-06-27 18:04:00,70.2,63.7,30.15,WNW,294,4.0,7.0,80,0.00,,,0.19,135,Wunderground v.1.15,2013-06-28 01:04:00,
2013-06-27 18:10:00,70.2,64.1,30.15,West,269,1.0,7.0,81,0.00,,,0.19,132,Wunderground v.1.15,2013-06-28 01:10:00,
2013-06-27 18:15:00,70.2,63.7,30.15,West,281,2.0,6.0,80,0.00,,,0.19,171,Wunderground v.1.15,2013-06-28 01:15:00,
2013-06-27 18:20:00,70.2,63.4,30.14,WNW,286,1.0,6.0,79,0.00,,,0.19,149,Wunderground v.1.15,2013-06-28 01:20:00,
2013-06-27 18:25:00,70.2,63.4,30.14,WNW,286,2.0,4.0,79,0.00,,,0.19,130,Wunderground v.1.15,2013-06-28 01:25:00,
2013-06-27 18:30:00,70.2,63.7,30.14,WNW,286,0.0,1.0,80,0.00,,,0.19,134,Wunderground v.1.15,2013-06-28 01:30:00,
2013-06-27 18:35:00,70.4,63.9,30.14,WNW,286,0.0,1.0,80,0.00,,,0.19,116,Wunderground v.1.15,2013-06-28 01:35:00,
2013-06-27 18:40:00,70.4,63.9,30.15,WNW,286,0.0,2.0,80,0.00,,,0.19,109,Wunderground v.1.15,2013-06-28 01:40:00,
2013-06-27 18:45:00,70.4,63.9,30.15,WNW,286,1.0,4.0,80,0.00,,,0.19,97,Wunderground v.1.15,2013-06-28 01:45:00,
2013-06-27 18:51:00,70.4,63.9,30.15,WNW,286,0.0,2.0,80,0.00,,,0.19,91,Wunderground v.1.15,2013-06-28 01:51:00,
2013-06-27 18:56:00,70.3,64.2,30.15,WNW,286,1.0,2.0,81,0.00,,,0.19,93,Wunderground v.1.15,2013-06-28 01:56:00,
2013-06-27 19:01:00,70.3,64.2,30.14,WNW,286,1.0,1.0,81,0.00,,,0.19,130,Wunderground v.1.15,2013-06-28 02:01:00,
2013-06-27 19:06:00,70.3,64.5,30.15,WNW,286,0.0,4.0,82,0.00,,,0.19,127,Wunderground v.1.15,2013-06-28 02:06:00,
2013-06-27 19:12:00,70.4,65.0,30.15,North,360,4.0,5.0,83,0.00,,,0.19,100,Wunderground v.1.15,2013-06-28 02:12:00,
2013-06-27 19:17:00,70.2,65.1,30.15,NNE,33,4.0,5.0,84,0.00,,,0.19,65,Wunderground v.1.15,2013-06-28 02:17:00,
2013-06-27 19:22:00,69.8,64.7,30.15,NNE,13,2.0,5.0,84,0.00,,,0.19,49,Wunderground v.1.15,2013-06-28 02:22:00,
2013-06-27 19:27:00,69.6,64.5,30.16,North,351,2.0,6.0,84,0.00,,,0.19,33,Wunderground v.1.15,2013-06-28 02:27:00,
2013-06-27 19:32:00,69.4,64.0,30.16,NW,323,4.0,5.0,83,0.00,,,0.19,35,Wunderground v.1.15,2013-06-28 02:32:00,
2013-06-27 19:37:00,69.4,64.0,30.15,NW,324,4.0,5.0,83,0.00,,,0.19,42,Wunderground v.1.15,2013-06-28 02:37:00,
2013-06-27 19:42:00,69.3,64.3,30.15,NW,325,4.0,5.0,84,0.00,,,0.19,54,Wunderground v.1.15,2013-06-28 02:42:00,
2013-06-27 19:48:00,69.0,63.6,30.15,NNW,347,6.0,7.0,83,0.00,,,0.19,46,Wunderground v.1.15,2013-06-28 02:48:00,
2013-06-27 19:53:00,68.8,63.8,30.15,NNW,340,1.0,5.0,84,0.00,,,0.19,49,Wunderground v.1.15,2013-06-28 02:53:00,
2013-06-27 19:59:00,68.6,63.6,30.15,NNW,342,4.0,8.0,84,0.00,,,0.19,56,Wunderground v.1.15,2013-06-28 02:59:00,
2013-06-27 20:04:00,68.5,63.5,30.15,NNW,337,6.0,7.0,84,0.00,,,0.19,54,Wunderground v.1.15,2013-06-28 03:04:00,
2013-06-27 20:10:00,68.3,63.3,30.15,North,349,1.0,4.0,84,0.00,,,0.19,47,Wunderground v.1.15,2013-06-28 03:10:00,
2013-06-27 20:16:00,68.2,63.2,30.15,North,355,2.0,5.0,84,0.00,,,0.19,39,Wunderground v.1.15,2013-06-28 03:16:00,
2013-06-27 20:21:00,68.1,63.4,30.15,North,355,2.0,3.0,85,0.00,,,0.19,35,Wunderground v.1.15,2013-06-28 03:21:00,
2013-06-27 20:26:00,68.1,63.4,30.15,North,355,2.0,6.0,85,0.00,,,0.19,28,Wunderground v.1.15,2013-06-28 03:26:00,
2013-06-27 20:31:00,67.9,63.2,30.15,North,355,5.0,5.0,85,0.00,,,0.19,21,Wunderground v.1.15,2013-06-28 03:31:00,
2013-06-27 20:36:00,67.8,63.5,30.15,North,355,5.0,6.0,86,0.00,,,0.19,12,Wunderground v.1.15,2013-06-28 03:36:00,
2013-06-27 20:41:00,67.7,63.4,30.15,North,355,2.0,4.0,86,0.00,,,0.19,9,Wunderground v.1.15,2013-06-28 03:41:00,
2013-06-27 20:46:00,67.5,63.2,30.15,North,355,1.0,5.0,86,0.00,,,0.19,7,Wunderground v.1.15,2013-06-28 03:46:00,
2013-06-27 20:52:00,67.4,63.1,30.15,North,355,2.0,5.0,86,0.00,,,0.19,7,Wunderground v.1.15,2013-06-28 03:52:00,
2013-06-27 20:57:00,67.4,63.1,30.15,North,355,1.0,5.0,86,0.00,,,0.19,0,Wunderground v.1.15,2013-06-28 03:57:00,
2013-06-27 21:01:00,67.3,63.0,30.15,North,355,0.0,4.0,86,0.00,,,0.19,0,Wunderground v.1.15,2013-06-28 04:01:00,
2013-06-27 21:06:00,67.2,62.9,30.15,North,355,2.0,5.0,86,0.00,,,0.19,0,Wunderground v.1.15,2013-06-28 04:06:00,
2013-06-27 21:11:00,67.1,62.8,30.15,North,355,4.0,4.0,86,0.00,,,0.19,0,Wunderground v.1.15,2013-06-28 04:11:00,
2013-06-27 21:16:00,67.0,62.7,30.15,North,355,1.0,4.0,86,0.00,,,0.19,0,Wunderground v.1.15,2013-06-28 04:16:00,
2013-06-27 21:21:00,66.8,62.5,30.15,North,355,1.0,4.0,86,0.00,,,0.19,0,Wunderground v.1.15,2013-06-28 04:21:00,
2013-06-27 21:26:00,66.8,62.5,30.15,North,355,2.0,4.0,86,0.00,,,0.19,0,Wunderground v.1.15,2013-06-28 04:26:00,
2013-06-27 21:31:00,66.7,62.4,30.15,North,355,4.0,4.0,86,0.00,,,0.19,0,Wunderground v.1.15,2013-06-28 04:31:00,
2013-06-27 21:36:00,66.6,62.6,30.16,North,355,2.0,5.0,87,0.00,,,0.19,0,Wunderground v.1.15,2013-06-28 04:36:00,
2013-06-27 21:41:00,66.5,62.5,30.16,North,355,0.0,2.0,87,0.00,,,0.19,0,Wunderground v.1.15,2013-06-28 04:41:00,
2013-06-27 21:46:00,66.4,62.4,30.15,North,355,0.0,2.0,87,0.00,,,0.19,0,Wunderground v.1.15,2013-06-28 04:46:00,
2013-06-27 21:51:00,66.1,62.1,30.15,North,355,0.0,0.0,87,0.00,,,0.19,0,Wunderground v.1.15,2013-06-28 04:51:00,
2013-06-27 21:56:00,65.7,61.7,30.15,North,355,0.0,0.0,87,0.00,,,0.19,0,Wunderground v.1.15,2013-06-28 04:56:00,
2013-06-27 22:01:00,65.4,61.4,30.15,North,355,0.0,0.0,87,0.00,,,0.19,0,Wunderground v.1.15,2013-06-28 05:01:00,
2013-06-27 22:06:00,65.3,61.3,30.16,North,355,0.0,0.0,87,0.00,,,0.19,0,Wunderground v.1.15,2013-06-28 05:06:00,
2013-06-27 22:11:00,65.3,61.3,30.16,North,355,0.0,2.0,87,0.00,,,0.19,0,Wunderground v.1.15,2013-06-28 05:11:00,
2013-06-27 22:16:00,65.4,61.4,30.16,North,355,0.0,4.0,87,0.00,,,0.19,0,Wunderground v.1.15,2013-06-28 05:16:00,
2013-06-27 22:21:00,65.4,61.4,30.16,North,355,2.0,4.0,87,0.00,,,0.19,0,Wunderground v.1.15,2013-06-28 05:21:00,
2013-06-27 22:27:00,65.3,61.3,30.16,North,355,0.0,4.0,87,0.00,,,0.19,0,Wunderground v.1.15,2013-06-28 05:27:00,
2013-06-27 22:32:00,65.2,61.2,30.16,North,355,0.0,2.0,87,0.00,,,0.19,0,Wunderground v.1.15,2013-06-28 05:32:00,
2013-06-27 22:37:00,65.1,61.1,30.16,North,355,0.0,4.0,87,0.00,,,0.19,0,Wunderground v.1.15,2013-06-28 05:37:00,
2013-06-27 22:42:00,65.1,61.1,30.15,North,355,1.0,1.0,87,0.00,,,0.19,0,Wunderground v.1.15,2013-06-28 05:42:00,
2013-06-27 22:47:00,65.1,61.1,30.15,North,355,2.0,2.0,87,0.00,,,0.19,0,Wunderground v.1.15,2013-06-28 05:47:00,
2013-06-27 22:52:00,65.1,61.1,30.15,North,355,0.0,1.0,87,0.00,,,0.19,0,Wunderground v.1.15,2013-06-28 05:52:00,
2013-06-27 22:57:00,64.9,60.9,30.15,North,355,0.0,1.0,87,0.00,,,0.19,0,Wunderground v.1.15,2013-06-28 05:57:00,
2013-06-27 23:02:00,64.7,60.7,30.15,North,355,0.0,0.0,87,0.00,,,0.19,0,Wunderground v.1.15,2013-06-28 06:02:00,
2013-06-27 23:07:00,64.7,60.7,30.15,North,355,0.0,1.0,87,0.00,,,0.19,0,Wunderground v.1.15,2013-06-28 06:07:00,
2013-06-27 23:12:00,64.7,60.7,30.15,North,355,0.0,0.0,87,0.00,,,0.19,0,Wunderground v.1.15,2013-06-28 06:12:00,
2013-06-27 23:17:00,64.7,60.7,30.15,North,355,0.0,0.0,87,0.00,,,0.19,0,Wunderground v.1.15,2013-06-28 06:17:00,
2013-06-27 23:22:00,64.7,60.7,30.15,North,355,2.0,4.0,87,0.00,,,0.19,0,Wunderground v.1.15,2013-06-28 06:22:00,
2013-06-27 23:27:00,64.5,60.5,30.15,North,355,1.0,4.0,87,0.00,,,0.19,0,Wunderground v.1.15,2013-06-28 06:27:00,
2013-06-27 23:32:00,64.5,60.5,30.14,North,355,1.0,2.0,87,0.00,,,0.19,0,Wunderground v.1.15,2013-06-28 06:32:00,
2013-06-27 23:37:00,64.4,60.4,30.14,North,355,0.0,2.0,87,0.00,,,0.19,0,Wunderground v.1.15,2013-06-28 06:37:00,
2013-06-27 23:42:00,64.4,60.4,30.14,North,355,0.0,0.0,87,0.00,,,0.19,0,Wunderground v.1.15,2013-06-28 06:42:00,
2013-06-27 23:47:00,64.3,60.3,30.14,North,355,0.0,2.0,87,0.00,,,0.19,0,Wunderground v.1.15,2013-06-28 06:47:00,
2013-06-27 23:54:00,64.2,60.2,30.14,North,355,0.0,0.0,87,0.00,,,0.19,0,Wunderground v.1.15,2013-06-28 06:54:00,
2013-06-27 23:59:00,64.1,60.2,30.14,North,355,0.0,1.0,87,0.00,,,0.19,0,Wunderground v.1.15,2013-06-28 06:59:00,